Windsor Heights, WV

7:00 AM EST on February 11, 2016 (GMT -0500)
Wheeling-Ohio County

Weather History for KHLG - January, 2013

Change the Weather History Date:

Thursday, January 31, 2013

  Actual Average Record
Temperature  
Mean Temperature 31 °F 30 °F  
Max Temperature 40 °F 37 °F 72 °F (2002)
Min Temperature 21 °F 22 °F -1 °F (2004)
Degree Days  
Heating Degree Days 34 35  
Month to date heating degree days 1005 1114  
Since 1 July heating degree days 3031 3242  
Cooling Degree Days 0    
Month to date cooling degree days 0  
Year to date cooling degree days 0  
Moisture  
Dew Point 19 °F    
Average Humidity 69    
Maximum Humidity 88    
Minimum Humidity 50    
Precipitation  
Precipitation 0.02 in 0.06 in 0.19 in (1983)
Month to date precipitation 2.14 2.62  
Sea Level Pressure  
Sea Level Pressure 29.69 in    
Wind  
Wind Speed 18 mph (West)    
Max Wind Speed 38 mph    
Max Gust Speed 53 mph    
Visibility 6 miles    
Events Fog , Rain , Snow    
T = Trace of Precipitation, MM = Missing Value Source: NWS Daily Summary

Daily Weather History Graph

Daily Weather History Graph

Search for Another Location

Airport or City:

Trip Planner

Search our weather history database for the weather conditions in past years. The results will help you decide how hot, cold, wet, or windy it might be!

Date:

Astronomy

Jan. 31, 2013 Rise Set
Actual Time 7:32 AM EST 5:40 PM EST
Civil Twilight 7:03 AM EST 6:09 PM EST
Nautical Twilight 6:30 AM EST 6:41 PM EST
Astronomical Twilight 5:58 AM EST 7:13 PM EST
Moon 10:41 PM EST (1/31) 9:30 AM EST (1/31)
Length of Visible Light 11h 05m
Length of Day
10h 08m
Waning Gibbous, 80% of the Moon is Illuminated
Jan 31
Waning Gibbous
Feb 3
Last Quarter
Feb 10
New
Feb 17
First Quarter
Feb 25
Full

Hourly Weather History & Observations

Time (EST) Temp. Windchill Dew Point Humidity Pressure Visibility Wind Dir Wind Speed Gust Speed Precip Events Conditions
12:14 AM 39.2 °F 29.0 °F 35.6 °F 87% 29.34 in 10.0 mi WSW 21.9 mph 41.4 mph 0.00 in Rain Light Rain
12:53 AM 37.0 °F 27.4 °F 33.1 °F 86% 29.35 in 10.0 mi West 17.3 mph 33.4 mph 0.00 in Rain Light Rain
1:13 AM 37.4 °F 26.4 °F 32.0 °F 81% 29.36 in 10.0 mi West 23.0 mph 33.4 mph 0.00 in Rain Light Rain
1:39 AM 33.8 °F 20.8 °F 30.2 °F 87% 29.39 in 3.0 mi West 26.5 mph 38.0 mph 0.01 in Snow Light Snow
1:44 AM 33.8 °F 21.9 °F 30.2 °F 87% 29.39 in 2.5 mi West 21.9 mph 42.6 mph 0.01 in Snow Light Snow
1:53 AM 34.0 °F 20.5 °F 28.9 °F 82% 29.42 in 8.0 mi West 28.8 mph 38.0 mph 0.01 in Snow Light Snow
2:13 AM 33.8 °F 21.9 °F 28.4 °F 81% 29.42 in 10.0 mi West 21.9 mph 38.0 mph 0.00 in   Overcast
2:51 AM 33.8 °F 21.0 °F 24.8 °F 70% 29.43 in 10.0 mi West 25.3 mph 47.2 mph 0.00 in   Overcast
2:53 AM 34.0 °F 21.0 °F 25.0 °F 70% 29.45 in 10.0 mi West 26.5 mph 47.2 mph 0.00 in   Overcast
3:05 AM 33.8 °F 21.6 °F 24.8 °F 70% 29.43 in 10.0 mi WSW 23.0 mph 41.4 mph N/A   Overcast
3:53 AM 32.0 °F 20.8 °F 26.1 °F 79% 29.48 in 10.0 mi West 17.3 mph 33.4 mph 0.00 in   Overcast
4:36 AM 30.2 °F 17.1 °F 24.8 °F 80% 29.48 in 1.8 mi West 21.9 mph 35.7 mph 0.00 in Snow Light Snow
4:53 AM 30.9 °F 19.4 °F 25.0 °F 79% 29.51 in 4.0 mi West 17.3 mph 29.9 mph 0.00 in Snow Light Snow
5:06 AM 30.2 °F 14.3 °F 19.4 °F 64% 29.50 in 10.0 mi West 34.5 mph 51.8 mph 0.00 in   Overcast
5:53 AM 30.0 °F 16.6 °F 19.9 °F 66% 29.55 in 10.0 mi West 23.0 mph 36.8 mph 0.00 in   Overcast
6:53 AM 28.9 °F 15.8 °F 19.0 °F 67% 29.60 in 10.0 mi West 20.7 mph 32.2 mph N/A   Overcast
7:01 AM 28.4 °F 14.7 °F 19.4 °F 69% 29.58 in 10.0 mi West 21.9 mph 33.4 mph N/A   Overcast
7:37 AM 26.6 °F 10.3 °F 19.4 °F 74% 29.61 in 3.0 mi WSW 29.9 mph 44.9 mph 0.00 in Snow Light Snow
7:50 AM 26.6 °F 12.4 °F 17.6 °F 69% 29.62 in 9.0 mi WSW 21.9 mph 41.4 mph 0.00 in   Overcast
7:53 AM 27.0 °F 13.5 °F 17.1 °F 66% 29.65 in 10.0 mi WSW 19.6 mph 39.1 mph 0.00 in   Overcast
8:53 AM 25.0 °F 8.1 °F 16.0 °F 69% 29.70 in 6.0 mi West 29.9 mph 52.9 mph 0.01 in Snow Light Snow
9:11 AM 24.8 °F 9.0 °F 15.8 °F 69% 29.69 in 2.5 mi West 25.3 mph 40.3 mph 0.00 in Snow Light Snow
9:14 AM 24.8 °F 10.7 °F 15.8 °F 69% 29.69 in 3.0 mi West 19.6 mph 39.1 mph 0.00 in Snow Light Snow
9:22 AM 24.8 °F 11.5 °F 15.8 °F 69% 29.69 in 9.0 mi West 17.3 mph 34.5 mph 0.00 in   Overcast
9:53 AM 25.0 °F 10.2 °F 15.1 °F 66% 29.73 in 10.0 mi WSW 21.9 mph 29.9 mph 0.00 in   Overcast
10:53 AM 25.0 °F 10.9 °F 16.0 °F 69% 29.75 in 1.2 mi West 19.6 mph 38.0 mph 0.00 in Snow Light Snow
11:01 AM 24.8 °F 10.3 °F 17.6 °F 74% 29.72 in 1.0 mi West 20.7 mph 42.6 mph 0.00 in Snow Light Snow
11:06 AM 26.6 °F 12.4 °F 15.8 °F 64% 29.72 in 7.0 mi West 21.9 mph 42.6 mph 0.00 in Snow Light Snow
11:21 AM 26.6 °F 10.8 °F 14.0 °F 59% 29.72 in 10.0 mi WSW 27.6 mph 42.6 mph 0.00 in   Overcast
11:53 AM 25.0 °F 8.6 °F 15.1 °F 66% 29.76 in 6.0 mi West 27.6 mph 39.1 mph 0.00 in   Haze
12:18 PM 24.8 °F 10.3 °F 15.8 °F 69% 29.74 in 2.0 mi WSW 20.7 mph 34.5 mph 0.00 in Snow Light Snow
12:22 PM 24.8 °F 8.4 °F 15.8 °F 69% 29.74 in 3.0 mi West 27.6 mph 39.1 mph 0.00 in Snow Light Snow
12:53 PM 26.1 °F 13.1 °F 10.9 °F 53% 29.78 in 10.0 mi West 17.3 mph 35.7 mph 0.00 in   Overcast
1:39 PM 24.8 °F 7.3 °F 14.0 °F 64% 29.75 in 1.8 mi WSW 32.2 mph 46.0 mph 0.00 in Snow Light Snow
1:50 PM 24.8 °F 10.7 °F 15.8 °F 69% 29.75 in 4.0 mi WSW 19.6 mph 34.5 mph 0.00 in Snow Light Snow
1:53 PM 24.1 °F 7.7 °F 15.1 °F 69% 29.80 in 8.0 mi WSW 26.5 mph 39.1 mph 0.00 in   Mostly Cloudy
2:12 PM 24.8 °F 8.4 °F 15.8 °F 69% 29.77 in 1.5 mi WSW 27.6 mph 46.0 mph 0.00 in Snow Light Snow
2:16 PM 21.2 °F 2.7 °F 15.8 °F 80% 29.77 in 0.5 mi West 31.1 mph 46.0 mph 0.00 in Snow Snow
2:25 PM 21.2 °F 4.9 °F 17.6 °F 86% 29.78 in 0.2 mi West 23.0 mph 38.0 mph 0.00 in Fog , Snow Snow
2:34 PM 23.0 °F 6.6 °F 15.8 °F 74% 29.79 in 1.2 mi West 25.3 mph 33.4 mph 0.00 in Snow Light Snow
2:40 PM 23.0 °F 8.3 °F 14.0 °F 68% 29.79 in 3.0 mi West 19.6 mph 33.4 mph 0.00 in Snow Light Snow
2:48 PM 24.8 °F 10.7 °F 12.2 °F 59% 29.79 in 9.0 mi West 19.6 mph 33.4 mph 0.00 in   Overcast
2:53 PM 24.1 °F 11.5 °F 12.0 °F 60% 29.83 in 4.0 mi West 15.0 mph 33.4 mph 0.00 in Snow Light Snow
3:53 PM 25.0 °F 12.6 °F 10.9 °F 55% 29.85 in 10.0 mi West 15.0 mph 28.8 mph 0.00 in   Overcast
4:53 PM 24.1 °F 12.0 °F 12.9 °F 62% 29.86 in 10.0 mi WSW 13.8 mph 27.6 mph N/A   Overcast
5:53 PM 24.1 °F 13.1 °F 14.0 °F 65% 29.85 in 10.0 mi WSW 11.5 mph 19.6 mph N/A   Overcast
6:53 PM 24.1 °F 11.5 °F 15.1 °F 69% 29.87 in 6.0 mi WSW 15.0 mph 24.2 mph 0.00 in Snow Light Snow
7:00 PM 24.8 °F 12.4 °F 15.8 °F 69% 29.82 in 2.5 mi WSW 15.0 mph 24.2 mph 0.00 in Snow Light Snow
7:10 PM 24.8 °F 14.6 °F 17.6 °F 74% 29.82 in 7.0 mi West 10.4 mph 18.4 mph 0.00 in Snow Light Snow
8:56 PM 24.8 °F 12.4 °F 15.8 °F 69% 29.83 in 2.5 mi West 15.0 mph 20.7 mph 0.00 in Snow Light Snow
9:02 PM 23.0 °F 10.6 °F 17.6 °F 80% 29.83 in 0.8 mi West 13.8 mph 24.2 mph 0.00 in Snow Light Snow
9:22 PM 23.0 °F 11.7 °F 19.4 °F 86% 29.84 in 0.8 mi West 11.5 mph 17.3 mph 0.00 in Snow Light Snow
9:37 PM 23.0 °F 12.4 °F 19.4 °F 86% 29.83 in 0.5 mi West 10.4 mph - 0.00 in Fog , Snow Snow
9:53 PM 23.0 °F 11.1 °F 19.9 °F 88% 29.89 in 1.0 mi WSW 12.7 mph 17.3 mph 0.00 in Snow Light Snow
10:13 PM 23.0 °F 9.6 °F 19.4 °F 86% 29.83 in 0.8 mi West 16.1 mph 25.3 mph 0.00 in Snow Light Snow
10:16 PM 23.0 °F 11.7 °F 19.4 °F 86% 29.84 in 0.8 mi West 11.5 mph 25.3 mph 0.00 in Snow Light Snow
10:23 PM 23.0 °F 10.6 °F 19.4 °F 86% 29.83 in 1.8 mi West 13.8 mph 19.6 mph 0.00 in Snow Light Snow
10:53 PM 23.0 °F 11.7 °F 19.0 °F 85% 29.88 in 2.5 mi West 11.5 mph - 0.00 in Snow Light Snow
11:02 PM 23.0 °F 12.4 °F 19.4 °F 86% 29.83 in 4.0 mi West 10.4 mph 18.4 mph 0.00 in Snow Light Snow
11:09 PM 21.2 °F 8.9 °F 19.4 °F 93% 29.83 in 5.0 mi West 12.7 mph - 0.00 in Snow Light Snow
11:42 PM 21.2 °F 13.6 °F 17.6 °F 86% 29.82 in 5.0 mi WNW 5.8 mph - 0.00 in Snow Light Snow
11:53 PM 21.9 °F 14.5 °F 18.0 °F 85% 29.87 in 8.0 mi West 5.8 mph - 0.00 in   Overcast